[[{"header":{"parameterUnit":"m.s-1","parameterCategory":1,"la1":30.2991,"la2":30.254,"lo1":-89.0895,"lo2":-89.0444,"dy":0.0017,"dx":0.0017,"nx":28,"ny":28,"refTime":"2024-10-18T03:00:00:Z","depth":0,"parameterNumber":2,"parameterNumberName":"U-component_of_WINDS"},"data":[0,0,0,0,0,0,0,0,0,0,0,0,0,0,0,0,0,0,0,0,0,0,0,0,0,0,0,0,0,0,0,0,0,0,0,0,0,0,0,0,0,0,0,0,0,0,0,0,0,0,0,0,0,0,0,0,0,0,-4.5875,-4.5874,0,-4.5852,-4.5852,-4.5852,-4.5733,-4.573,-4.5727,-4.5724,-4.5703,-4.5705,-4.5707,0,0,0,0,0,0,0,0,0,0,0,0,0,-4.5816,-4.5817,-4.5875,-4.5874,-4.5874,-4.5852,-4.5852,-4.5852,-4.5733,-4.573,-4.5726,-4.5723,-4.5702,-4.5704,-4.5707,0,0,0,0,0,0,0,0,0,0,0,0,0,-4.5822,-4.5818,-4.5875,-4.5812,-4.5806,-4.5852,-4.5852,-4.5852,-4.5734,-4.573,-4.5725,-4.5721,-4.5701,-4.5704,-4.5707,-4.5812,0,0,-4.5717,-4.5718,0,0,0,0,0,0,0,0,-4.5822,-4.5824,-4.5822,-4.5817,-4.581,-4.5791,-4.5823,-4.5838,-4.5735,-4.5762,-4.5724,-4.5719,-4.5736,-4.5736,-4.5741,-4.5811,-4.581,-4.5717,-4.5719,-4.572,-4.5721,0,0,0,0,0,0,0,-4.5822,-4.5825,-4.5866,-4.5822,-4.5815,-4.5786,-4.5782,-4.5826,-4.5773,-4.5759,-4.575,-4.5749,-4.5732,-4.5738,-4.5739,-4.581,-4.5717,-4.572,-4.5722,-4.5723,-4.5967,-4.5971,0,0,0,0,0,0,-4.583,-4.5825,-4.5866,-4.5865,-4.5806,-4.579,-4.5786,-4.5801,-4.5772,-4.5763,-4.5753,-4.5744,-4.5735,-4.5736,-4.5738,-4.586,-4.572,-4.5723,-4.5725,-4.5962,-4.5968,-4.5973,0,0,0,0,0,0,-4.5829,-4.5835,-4.5867,-4.5843,-4.5845,-4.5796,-4.5814,-4.5803,-4.581,-4.5767,-4.5757,-4.5769,-4.5732,-4.5734,-4.5795,-4.5858,-4.5725,-4.5727,-4.5957,-4.5964,-4.597,-4.6105,0,0,0,0,0,0,-4.5828,-4.5835,-4.5874,-4.5845,-4.5846,-4.5924,-4.5818,-4.5806,-4.5815,-4.5803,-4.578,-4.5772,-4.5728,-4.5791,-4.5798,-4.586,-4.573,-4.5951,-4.596,-4.5968,-4.6095,-4.6116,-4.6134,0,0,0,0,0,-4.5826,-4.5913,-4.5877,-4.5882,-4.5894,-4.5928,-4.5929,-4.5877,-4.5821,-4.586,-4.5833,-4.5773,-4.585,-4.5798,-4.5805,-4.5869,-4.5947,-4.5957,-4.5967,-4.6086,-4.6111,-4.6133,0,0,0,0,0,0,-4.5951,-4.5907,-4.5867,-4.5946,-4.5942,-4.5908,-4.5956,-4.5905,-4.5917,-4.5905,-4.584,-4.5836,-4.5907,-4.5893,-4.5837,-4.597,-4.5888,-4.59,-4.5976,-4.6,-4.6019,-4.6021,-4.5733,0,0,0,0,0,-4.5987,-4.6018,-4.5979,-4.6053,-4.6053,-4.6005,-4.6018,-4.5978,-4.5971,-4.5968,-4.5945,-4.5941,-4.5964,-4.5981,-4.6,-4.6092,-4.6086,-4.6139,-4.6159,-4.6175,-4.6187,-4.6236,-4.626,-4.6007,-4.6007,-4.6006,0,0,-4.6063,-4.6044,-4.6067,-4.6077,-4.6069,-4.6104,-4.6004,-4.6044,-4.6069,-4.5974,-4.6031,-4.6015,-4.6005,-4.6083,-4.6116,-4.6074,-4.6255,-4.6188,-4.6201,-4.6204,-4.6249,-4.6273,-4.6295,-4.6014,-4.6012,-4.6011,0,0,-4.622,-4.6208,-4.6269,-4.6263,-4.6251,-4.6219,-4.6234,-4.6208,-4.6194,-4.6249,-4.618,-4.6208,-4.6249,-4.6246,-4.625,-4.6407,-4.6353,-4.6415,-4.6517,-4.6566,-4.6586,-4.6603,-4.6661,-4.6683,-4.6427,-4.6427,-4.6427,0,-4.6316,-4.6365,-4.6306,-4.6352,-4.6359,-4.6274,-4.6337,-4.6333,-4.633,-4.6337,-4.629,-4.634,-4.6328,-4.6405,-4.6443,-4.6448,-4.6465,-4.6418,-4.6588,-4.6605,-4.662,-4.6675,-4.6696,-4.6435,-4.6434,-4.6433,-4.6432,0,-4.6484,-4.6519,-4.657,-4.6569,-4.6581,-4.6635,-4.6586,-4.6605,-4.6565,-4.6538,-4.6597,-4.6579,-4.6594,-4.6609,-4.6569,-4.6681,-4.6655,-4.6599,-4.6516,-4.6653,-4.6703,-4.6723,-4.6446,-4.6443,-4.6441,-4.6439,0,0,-4.6719,-4.6685,-4.6705,-4.6704,-4.6686,-4.6712,-4.6763,-4.6777,-4.6796,-4.6796,-4.6838,-4.6875,-4.6823,-4.6828,-4.6787,-4.683,-4.6958,-4.6768,-4.6767,-4.6806,-4.7082,-4.7126,-4.715,-4.6921,-4.6925,-4.6928,-4.7083,0,-4.687,-4.6954,-4.6903,-4.6995,-4.7028,-4.6948,-4.6992,-4.6987,-4.6963,-4.6988,-4.6961,-4.699,-4.6918,-4.6921,-4.696,-4.6934,-4.7013,-4.6922,-4.6961,-4.6963,-4.6967,-4.7176,-4.7222,-4.7369,-4.7102,-4.7105,-4.7108,0,-4.7058,-4.7067,-4.7162,-4.7139,-4.7151,-4.7191,-4.7201,-4.7225,-4.7218,-4.7198,-4.7204,-4.7153,-4.7202,-4.7119,-4.7186,-4.7126,-4.7138,-4.7128,-4.7133,-4.7136,-4.7045,-4.7187,-4.7415,-4.7438,-4.7138,-4.7135,-4.7133,0,-4.7222,-4.7257,-4.7319,-4.7321,-4.7295,-4.7326,-4.7317,-4.7305,-4.7317,-4.7326,-4.7334,-4.7348,-4.7357,-4.7369,-4.7324,-4.7268,-4.7398,-4.7311,-4.7384,-4.7386,-4.7416,-4.7415,-4.7652,-4.7422,-4.7422,-4.7421,-4.7421,0,-4.7397,-4.7459,-4.7393,-4.7432,-4.7499,-4.744,-4.7509,-4.7491,-4.7482,-4.7516,-4.7448,-4.7481,-4.7419,-4.7447,-4.7412,-4.7474,-4.7477,-4.7464,-4.7454,-4.7471,-4.7473,-4.7479,-4.7469,-4.7427,-4.7426,-4.7425,-4.7424,0,-4.7592,-4.755,-4.7613,-4.7584,-4.7578,-4.7629,-4.7605,-4.7639,-4.7611,-4.7656,-4.7663,-4.7619,-4.7649,-4.7605,-4.7629,-4.7605,-4.7692,-4.7665,-4.7695,-4.7687,-4.7764,-4.7758,-4.8014,-4.8045,-4.7794,-4.7797,-4.7799,0,-4.7707,-4.7753,-4.7729,-4.7748,-4.7743,-4.7772,-4.7785,-4.7729,-4.7745,-4.7741,-4.7777,-4.78,-4.7816,-4.7867,-4.7838,-4.7857,-4.7832,-4.792,-4.7834,-4.785,-4.7835,-4.7834,-4.7839,-4.7938,-4.7941,-4.7944,-4.7946,0,-4.7917,-4.7895,-4.7915,-4.7929,-4.7946,-4.7955,-4.7958,-4.7977,-4.7918,-4.794,-4.7969,-4.7982,-4.8007,-4.8032,-4.8043,-4.8034,-4.7982,-4.7973,-4.7991,-4.801,-4.8026,-4.802,-4.7745,-4.7968,-4.7965,-4.7964,-4.7963,-4.7962,-4.8077,-4.8115,-4.8104,-4.813,-4.8127,-4.8132,-4.8164,-4.814,-4.8163,-4.818,-4.8145,-4.8184,-4.8176,-4.8186,-4.8183,-4.8213,-4.8174,-4.82,-4.8207,-4.8215,-4.8228,-4.802,-4.8214,-4.8214,-4.8213,-4.8213,-4.8212,0,-4.8285,-4.8274,-4.8299,-4.8306,-4.8327,-4.8274,-4.8276,-4.8297,-4.8331,-4.8328,-4.8346,-4.838,-4.8404,-4.8378,-4.8397,-4.8426,-4.8403,-4.8433,-4.8432,-4.8431,-4.826,-4.8243,-4.8452,-4.8452,-4.8452,-4.8452,-4.8452,-4.8452,-4.8396,-4.8457,-4.8434,-4.8494,-4.8483,-4.852,-4.8526,-4.853,-4.8528,-4.857,-4.859,-4.8572,-4.856,-4.8578,-4.8598,-4.859,-4.8601,-4.8641,-4.8625,-4.8466,-4.8443,-4.842,-4.8404,-4.8644,-4.8644,-4.8793,-4.8794,-4.8796]},{"header":{"parameterUnit":"m.s-1","parameterCategory":1,"la1":30.2991,"la2":30.254,"lo1":-89.0895,"lo2":-89.0444,"dy":0.0017,"dx":0.0017,"nx":28,"ny":28,"refTime":"2024-10-18T03:00:00:Z","depth":0,"parameterNumber":3,"parameterNumberName":"V-component_of_WINDS"},"data":[0,0,0,0,0,0,0,0,0,0,0,0,0,0,0,0,0,0,0,0,0,0,0,0,0,0,0,0,0,0,0,0,0,0,0,0,0,0,0,0,0,0,0,0,0,0,0,0,0,0,0,0,0,0,0,0,0,0,-1.1185,-1.1186,0,-1.1208,-1.1209,-1.1209,-1.1192,-1.1191,-1.119,-1.119,-1.1214,-1.1215,-1.1217,0,0,0,0,0,0,0,0,0,0,0,0,0,-1.1127,-1.1129,-1.1185,-1.1186,-1.1186,-1.1208,-1.1209,-1.1209,-1.1192,-1.1191,-1.119,-1.1189,-1.1214,-1.1215,-1.1217,0,0,0,0,0,0,0,0,0,0,0,0,0,-1.1152,-1.1129,-1.1185,-1.118,-1.118,-1.1208,-1.1209,-1.1209,-1.1192,-1.1191,-1.119,-1.1189,-1.1213,-1.1215,-1.1217,-1.1252,0,0,-1.1223,-1.1224,0,0,0,0,0,0,0,0,-1.115,-1.1154,-1.1181,-1.1181,-1.118,-1.1196,-1.1197,-1.1223,-1.1192,-1.1188,-1.119,-1.1188,-1.1209,-1.1211,-1.1218,-1.1253,-1.1254,-1.1223,-1.1225,-1.1226,-1.1226,0,0,0,0,0,0,0,-1.1149,-1.1153,-1.1194,-1.1181,-1.1181,-1.1177,-1.1179,-1.1202,-1.1204,-1.1188,-1.1187,-1.119,-1.1209,-1.1216,-1.1219,-1.1255,-1.1223,-1.1225,-1.1226,-1.1227,-1.132,-1.1321,0,0,0,0,0,0,-1.1147,-1.1152,-1.1194,-1.1195,-1.1162,-1.1179,-1.1181,-1.1192,-1.1204,-1.1205,-1.1191,-1.1189,-1.1213,-1.1216,-1.1219,-1.1262,-1.1226,-1.1227,-1.1229,-1.1318,-1.132,-1.1321,0,0,0,0,0,0,-1.1146,-1.1151,-1.1193,-1.1173,-1.1178,-1.1181,-1.1193,-1.1193,-1.1201,-1.1206,-1.1206,-1.1198,-1.1213,-1.1217,-1.1244,-1.1263,-1.1228,-1.123,-1.1317,-1.1319,-1.1321,-1.1347,0,0,0,0,0,0,-1.1145,-1.1151,-1.1164,-1.1173,-1.1179,-1.1217,-1.1194,-1.1194,-1.1204,-1.1202,-1.1213,-1.1214,-1.1212,-1.1241,-1.1246,-1.1265,-1.1232,-1.1315,-1.1318,-1.132,-1.1344,-1.1349,-1.1354,0,0,0,0,0,-1.1143,-1.1171,-1.1165,-1.117,-1.1196,-1.1218,-1.1222,-1.1219,-1.1206,-1.1219,-1.1222,-1.1213,-1.1259,-1.1244,-1.1249,-1.1269,-1.1314,-1.1317,-1.132,-1.1342,-1.1348,-1.1353,0,0,0,0,0,0,-1.1164,-1.1172,-1.1166,-1.1198,-1.1207,-1.1215,-1.1232,-1.1225,-1.1239,-1.1237,-1.1233,-1.1235,-1.1264,-1.1269,-1.1252,-1.1304,-1.1285,-1.1289,-1.13,-1.1306,-1.131,-1.1309,-1.1233,0,0,0,0,0,-1.1173,-1.119,-1.1196,-1.1223,-1.1229,-1.123,-1.1239,-1.1236,-1.1246,-1.125,-1.1256,-1.1266,-1.1283,-1.1294,-1.131,-1.1344,-1.1347,-1.136,-1.1365,-1.1368,-1.1373,-1.1392,-1.1398,-1.1331,-1.1331,-1.133,0,0,-1.1191,-1.1197,-1.1208,-1.1228,-1.1235,-1.1254,-1.1233,-1.1254,-1.1268,-1.1254,-1.128,-1.1284,-1.1296,-1.1327,-1.1341,-1.1332,-1.1392,-1.1372,-1.1375,-1.1377,-1.1396,-1.1402,-1.1408,-1.1332,-1.1332,-1.1332,0,0,-1.1233,-1.1239,-1.1263,-1.127,-1.1281,-1.1282,-1.1287,-1.1296,-1.1298,-1.1325,-1.1315,-1.1331,-1.136,-1.1368,-1.1377,-1.1421,-1.1414,-1.1426,-1.1451,-1.147,-1.1475,-1.148,-1.1497,-1.1504,-1.143,-1.143,-1.143,0,-1.1254,-1.1281,-1.1276,-1.1298,-1.1307,-1.1294,-1.1319,-1.1326,-1.1342,-1.1349,-1.1338,-1.1374,-1.138,-1.1414,-1.1425,-1.1431,-1.1438,-1.1426,-1.1475,-1.148,-1.1484,-1.1501,-1.1507,-1.1431,-1.1431,-1.1431,-1.1431,0,-1.1307,-1.1326,-1.1344,-1.136,-1.1371,-1.1394,-1.1392,-1.1404,-1.1399,-1.1401,-1.1428,-1.1435,-1.1452,-1.146,-1.1455,-1.1493,-1.1487,-1.1475,-1.1457,-1.1492,-1.1508,-1.1514,-1.1434,-1.1433,-1.1433,-1.1432,0,0,-1.1366,-1.1377,-1.1384,-1.1391,-1.1402,-1.1417,-1.1438,-1.1455,-1.1466,-1.1476,-1.1495,-1.1519,-1.1509,-1.1518,-1.1515,-1.1531,-1.1567,-1.1518,-1.1518,-1.1528,-1.161,-1.162,-1.1627,-1.1561,-1.1562,-1.1563,-1.161,0,-1.141,-1.1449,-1.1445,-1.1482,-1.15,-1.1487,-1.1506,-1.1515,-1.1517,-1.1532,-1.1534,-1.1552,-1.1536,-1.1541,-1.1556,-1.156,-1.1584,-1.1556,-1.158,-1.1581,-1.158,-1.1635,-1.1646,-1.1689,-1.1615,-1.1616,-1.1617,0,-1.1467,-1.148,-1.1519,-1.1527,-1.1534,-1.1552,-1.1566,-1.1581,-1.159,-1.159,-1.16,-1.1594,-1.1616,-1.1595,-1.1627,-1.1608,-1.1617,-1.162,-1.1622,-1.1626,-1.1603,-1.1642,-1.1703,-1.171,-1.1626,-1.1626,-1.1625,0,-1.1508,-1.1535,-1.1562,-1.1568,-1.1577,-1.159,-1.1594,-1.1603,-1.1613,-1.1625,-1.1632,-1.1647,-1.1656,-1.1668,-1.1666,-1.165,-1.1698,-1.1677,-1.17,-1.17,-1.1712,-1.1712,-1.1777,-1.1715,-1.1715,-1.1715,-1.1714,0,-1.1559,-1.1584,-1.158,-1.1597,-1.1624,-1.1619,-1.1646,-1.1649,-1.1656,-1.1673,-1.1663,-1.1679,-1.1674,-1.1691,-1.1689,-1.1716,-1.1719,-1.172,-1.172,-1.1723,-1.1723,-1.173,-1.1728,-1.1716,-1.1716,-1.1716,-1.1715,0,-1.1611,-1.1609,-1.1638,-1.1644,-1.1646,-1.1666,-1.1671,-1.1687,-1.1687,-1.1709,-1.1714,-1.1715,-1.1733,-1.1732,-1.1752,-1.1751,-1.1785,-1.178,-1.1782,-1.1782,-1.1805,-1.1804,-1.188,-1.189,-1.1819,-1.182,-1.182,0,-1.1645,-1.1663,-1.1671,-1.1682,-1.1687,-1.1705,-1.1715,-1.1709,-1.1721,-1.1732,-1.1747,-1.1764,-1.1779,-1.1809,-1.1811,-1.1827,-1.1824,-1.1849,-1.1826,-1.1828,-1.1826,-1.1826,-1.1828,-1.1854,-1.1855,-1.1856,-1.1856,0,-1.1705,-1.1703,-1.1718,-1.1733,-1.1745,-1.1757,-1.1767,-1.1776,-1.1772,-1.1785,-1.1804,-1.1814,-1.1835,-1.1853,-1.1868,-1.1873,-1.1865,-1.1863,-1.1869,-1.1873,-1.1875,-1.1876,-1.1797,-1.1862,-1.1861,-1.1861,-1.1861,-1.186,-1.175,-1.1766,-1.1775,-1.1792,-1.1799,-1.1808,-1.1824,-1.1825,-1.1841,-1.1858,-1.1853,-1.1875,-1.1883,-1.1902,-1.1909,-1.1926,-1.1917,-1.1925,-1.1928,-1.1931,-1.1935,-1.187,-1.1928,-1.1928,-1.1928,-1.1927,-1.1927,0,-1.1812,-1.1816,-1.1832,-1.1846,-1.186,-1.1849,-1.186,-1.1872,-1.1891,-1.1899,-1.1913,-1.1935,-1.1952,-1.1955,-1.1971,-1.1984,-1.1981,-1.1989,-1.1989,-1.1991,-1.1941,-1.1935,-1.1992,-1.1992,-1.1992,-1.1992,-1.1992,-1.1992,-1.1846,-1.1873,-1.1872,-1.1902,-1.1906,-1.1927,-1.1935,-1.1943,-1.195,-1.1975,-1.1989,-1.1991,-1.1997,-1.2014,-1.2029,-1.2029,-1.2037,-1.2047,-1.2046,-1.2,-1.1994,-1.1988,-1.1982,-1.2048,-1.2048,-1.2095,-1.2095,-1.2095]}]]